Regional Weather Roundup
Issued by NWS

Home | Current Version | Previous Version | Graphics & Text | Print | Product List | Glossary On
Versions: 1 2 3 4 5 6 7 8 9 10 11 12 13 14 15 16 17 18 19 20 21 22 23 24 25 26 27 28 29 30 31 32 33 34 35 36 37 38 39 40 41 42 43 44 45 46 47 48 49 50
000
ASUS43 KIND 231159
RWRIN

WEATHER ROUNDUP FOR INDIANA
NATIONAL WEATHER SERVICE INDIANAPOLIS IN
700 AM EST SUN NOV 23 2014

NOTE: "FAIR" INDICATES FEW OR NO CLOUDS BELOW 12,000 FEET WITH NO
SIGNIFICANT WEATHER AND/OR OBSTRUCTIONS TO VISIBILITY.

* - STATION DOES NOT REPORT WEATHER SUCH AS PRECIPITATION OR FOG.

+ - STATION NOT QUALITY CONTROLLED BY THE NATIONAL WEATHER SERVICE.
    USE DATA WITH CAUTION...ESPECIALLY DEWPOINT AND RELATIVE
    HUMIDITY OBSERVATIONS.

INZ001>003-010>013-019-020-231300-
NORTHWEST INDIANA

CITY           SKY/WX    TMP DP  RH WIND       PRES   REMARKS
GARY /AIRPORT/ MOCLDY    50  43  76 S12G28    29.79F
VALPARAISO     NOT AVBL

$$

LMZ046-743>745-231300-
SOUTHERN LAKE MICHIGAN

STATION/POSITION TIME  TEMP WIND        PRES
                       AIR  DIR/SP/G
                 (UTC) (F)  (DEG/KT/KT) (MB)
MICHIGAN CITY    1100   49  140/ 15/ 22   N/A

$$

INZ004-005-014>016-021>024-231300-
NORTH CENTRAL INDIANA

CITY           SKY/WX    TMP DP  RH WIND       PRES   REMARKS
GOSHEN         CLOUDY    46  43  89 SE9       29.86F
6HR MIN TEMP:  46; 6HR MAX TEMP:  50; 6HR PCP:  0.03;

PERU/GRISSOM   CLOUDY    45  45 100 SE10      29.88S
6HR MIN TEMP:  44; 6HR MAX TEMP:  47; 6HR PCP:  0.09;

SOUTH BEND     NOT AVBL

$$

INZ006>009-017-018-025>027-231300-
NORTHEAST INDIANA

CITY           SKY/WX    TMP DP  RH WIND       PRES   REMARKS
ANGOLA *+      CLOUDY    45  34  65 SE8       29.90F
FORT WAYNE     CLOUDY    44  41  89 S8        29.91F
6HR MIN TEMP:  44; 6HR MAX TEMP:  47; 6HR PCP:  0.10;


$$

INZ028-029-035-036-043>045-051>053-231300-
WEST CENTRAL INDIANA

CITY           SKY/WX    TMP DP  RH WIND       PRES   REMARKS
GREENCASTLE +  PTCLDY    50  45  81 S8        29.89R
LAFAYETTE      CLOUDY    49  42  77 S6        29.86R
6HR MIN TEMP:  47; 6HR MAX TEMP:  49; 6HR PCP:  0.03;

TERRE HAUTE    PTCLDY    50  41  71 S12       29.87S
6HR MIN TEMP:  48; 6HR MAX TEMP:  50;


$$

INZ030>032-037>040-046>048-054>057-064-065-231300-
CENTRAL INDIANA

CITY           SKY/WX    TMP DP  RH WIND       PRES   REMARKS
COLUMBUS       CLOUDY    46  39  76 S8        29.95
INDIANAPOLIS   MOCLDY    45  39  79 SE9       29.90R
6HR MIN TEMP:  44; 6HR MAX TEMP:  50; 6HR PCP: TRACE;

-EAGLE CREEK   PTCLDY    46  39  76 SE6       29.90R
6HR MIN TEMP:  46; 6HR MAX TEMP:  50; 6HR PCP: TRACE;

KOKOMO *+      CLOUDY    45  39  81 S9        29.89R
MT COMFORT *+  PTCLDY    46  34  61 S12       29.92R
SHELBYVILLE    PTCLDY    50  39  66 S10       29.93R
6HR MIN TEMP:  45; 6HR MAX TEMP:  51; 6HR PCP:  0.01;


$$

INZ033-034-041-042-049-050-058-059-231300-
EAST CENTRAL INDIANA

CITY           SKY/WX    TMP DP  RH WIND       PRES   REMARKS
MUNCIE         CLOUDY    50  40  68 S13       29.91F
6HR MIN TEMP:  46; 6HR MAX TEMP:  50; 6HR PCP:  0.13;


$$

INZ060-061-067>069-081>083-085>088-231300-
SOUTHWEST INDIANA

CITY           SKY/WX    TMP DP  RH WIND       PRES   REMARKS
EVANSVILLE     MOCLDY    52  40  63 SE6       29.90F
6HR MIN TEMP:  50; 6HR MAX TEMP:  53;

HUNTINGBURG *+ MOCLDY    54  39  58 S8        29.93F
6HR MIN TEMP:  52; 6HR MAX TEMP:  55;


$$

INZ062-063-066-070>080-084-089>092-231300-
SOUTH CENTRAL AND SOUTHEAST INDIANA

CITY           SKY/WX    TMP DP  RH WIND       PRES   REMARKS
BLOOMINGTON    MOCLDY    49  41  74 SE9       29.92R
6HR MIN TEMP:  48; 6HR MAX TEMP:  53; 6HR PCP: TRACE;


$$



USA.gov is the U.S. government's official web portal to all federal, state and local government web resources and services.